This is the latest recevied weather packets stored in our database for station/object BG5HLN-13. If no packets are shown the sender has not sent any weather packets the latest 10 day(s).
| Time | Temp. | Humidity | Pressure | Rain* | Wind** | Luminosity | Snow |
|---|---|---|---|---|---|---|---|
| 1777704560 | 24.44° C | 72% | 1004.9 hPa | 0 mm | - | - | - |
| 1777703960 | 24.44° C | 71% | 1005.2 hPa | 0 mm | - | - | - |
| 1777703359 | 24.44° C | 70% | 1005.2 hPa | 0 mm | - | - | - |
| 1777702759 | 25° C | 68% | 1005.3 hPa | 0 mm | - | - | - |
| 1777702159 | 25° C | 64% | 1005.3 hPa | 0 mm | - | - | - |
| 1777701560 | 25.56° C | 63% | 1005.4 hPa | 0 mm | - | - | - |
| 1777700959 | 25.56° C | 63% | 1005.5 hPa | 0 mm | - | - | - |
| 1777700359 | 26.11° C | 64% | 1005.6 hPa | 0 mm | - | - | - |
| 1777699759 | 26.11° C | 64% | 1005.8 hPa | 0 mm | - | - | - |
| 1777699159 | 26.11° C | 62% | 1006.1 hPa | 0 mm | - | - | - |
| 1777698559 | 26.11° C | 63% | 1006.3 hPa | 0 mm | - | - | - |
| 1777697960 | 26.11° C | 61% | 1006.4 hPa | 0 mm | - | - | - |
| 1777697359 | 26.11° C | 62% | 1006.5 hPa | 0 mm | - | - | - |
| 1777696759 | 26.67° C | 60% | 1006.5 hPa | 0 mm | - | - | - |
| 1777696159 | 26.67° C | 61% | 1006.8 hPa | 0 mm | - | - | - |
| 1777695559 | 26.67° C | 59% | 1007 hPa | 0 mm | - | - | - |
| 1777694960 | 27.22° C | 59% | 1007.2 hPa | 0 mm | - | - | - |
| 1777694358 | 26.67° C | 60% | 1007.2 hPa | 0 mm | - | - | - |
| 1777693759 | 26.67° C | 58% | 1007.1 hPa | 0 mm | - | - | - |
| 1777693162 | 26.67° C | 59% | 1007.2 hPa | 0 mm | - | - | - |
| 1777693158 | 26.67° C | 58% | 1007.1 hPa | 0 mm | - | - | - |
| 1777692559 | 26.67° C | 60% | 1007.5 hPa | 0 mm | - | - | - |
| 1777691958 | 26.11° C | 58% | 1007.6 hPa | 0 mm | - | - | - |
| 1777691361 | 26.11° C | 59% | 1007.6 hPa | 0 mm | - | - | - |
| 1777691358 | 26.11° C | 59% | 1007.6 hPa | 0 mm | - | - | - |
* Rain latest hour (hover to see other rain measurements)
** Current wind speed in m/s (hover to see current wind gust speed)